CW7625 Weather Reports


Display with metric or nautical units.
time (UTC)temp
F
wind
direction
speed
MPH
gust
MPH
rain 1hr
in
rain 24hr
in
rain mn
in
humidity
%
barometer
mb
20260508235107 75 105 3.0 5.0 0.00 0.00 0.00 73 1006.4
20260508234108 75 80 3.0 5.0 0.00 0.00 0.00 72 1006.4
20260508233108 74 201 0.0 3.0 0.00 0.00 0.00 72 1006.9
20260508231107 75 201 1.0 2.0 0.00 0.00 0.00 72 1007.5
20260508230108 75 201 1.0 3.0 0.00 0.00 0.00 70 1007.6
20260508225107 75 202 2.0 5.0 0.00 0.00 0.00 70 1007.8
20260508224107 76 82 0.0 6.0 0.00 0.00 0.00 69 1007.8
20260508223107 76 227 0.0 4.0 0.00 0.00 0.00 68 1007.7
20260508222107 76 323 0.0 4.0 0.00 0.00 0.00 66 1007.8
20260508221107 76 9 1.0 4.0 0.00 0.00 0.00 63 1007.6
20260508220107 76 304 0.0 4.0 0.00 0.00 0.00 64 1007.6
20260508215107 76 247 1.0 7.0 0.00 0.00 0.00 63 1007.6
20260508212108 77 20 2.0 8.0 0.00 0.00 0.00 59 1007.6
20260508211107 77 53 3.0 7.0 0.00 0.00 0.00 58 1007.8
20260508210107 77 74 0.0 9.0 0.00 0.00 0.00 57 1007.9
20260508204107 76 212 2.0 10.0 0.00 0.00 0.00 57 1008.1
20260508203107 77 246 5.0 6.0 0.00 0.00 0.00 54 1008.2
20260508202108 77 53 1.0 6.0 0.00 0.00 0.00 58 1008.3
20260508201108 77 233 2.0 5.0 0.00 0.00 0.00 57 1008.5
20260508200108 76 233 0.0 5.0 0.00 0.00 0.00 54 1008.8
20260508195107 76 251 2.0 5.0 0.00 0.00 0.00 58 1009.1
20260508193107 76 91 4.0 9.0 0.00 0.00 0.00 63 1009.3
20260508192107 76 241 1.0 5.0 0.00 0.00 0.00 59 1009.5
20260508191107 76 65 5.0 8.0 0.00 0.00 0.00 59 1009.6
20260508190108 76 205 3.0 8.0 0.00 0.00 0.00 60 1009.8
20260508185107 75 238 5.0 6.0 0.00 0.00 0.00 66 1010.0
20260508183108 74 235 5.0 8.0 0.00 0.00 0.00 64 1010.6
20260508182108 74 32 3.0 4.0 0.00 0.00 0.00 64 1010.8
20260508181107 73 63 3.0 7.0 0.00 0.00 0.00 68 1011.0
20260508180107 73 81 3.0 5.0 0.00 0.00 0.00 68 1011.0
20260508175108 72 186 1.0 6.0 0.00 0.00 0.00 67 1011.2
20260508174108 72 223 3.0 6.0 0.00 0.00 0.00 70 1011.7
20260508172108 72 225 1.0 5.0 0.00 0.00 0.00 67 1012.1
20260508165108 70 55 4.0 7.0 0.00 0.00 0.00 74 1012.8
20260508164107 70 224 2.0 4.0 0.00 0.00 0.00 74 1012.5
20260508163108 69 119 3.0 5.0 0.00 0.00 0.00 77 1012.5
20260508162108 68 187 1.0 5.0 0.00 0.00 0.00 78 1012.5
20260508161108 68 93 0.0 6.0 0.00 0.00 0.00 78 1012.6
20260508160108 67 90 1.0 5.0 0.00 0.00 0.00 80 1012.7
20260508155108 66 241 0.0 5.0 0.00 0.00 0.00 80 1013.3
20260508154108 67 51 2.0 4.0 0.00 0.00 0.00 79 1013.1
20260508153108 66 90 0.0 6.0 0.00 0.00 0.00 79 1013.0
20260508152108 66 221 3.0 3.0 0.00 0.00 0.00 81 1013.2
20260508151108 65 221 0.0 4.0 0.00 0.00 0.00 83 1013.1
20260508145108 63 348 1.0 2.0 0.00 0.00 0.00 87 1013.2
20260508144108 63 348 0.0 4.0 0.00 0.00 0.00 88 1013.4
20260508143108 62 348 1.0 4.0 0.00 0.00 0.00 88 1013.1
20260508142108 62 342 2.0 3.0 0.00 0.00 0.00 89 1013.0
20260508141108 61 342 1.0 3.0 0.00 0.00 0.00 91 1012.9
20260508140108 59 337 1.0 3.0 0.00 0.00 0.00 92 1013.3
20260508135108 58 330 0.0 1.0 0.00 0.00 0.00 92 1013.8
20260508134108 57 330 0.0 2.0 0.00 0.00 0.00 92 1014.1
20260508132108 56 297 0.0 4.0 0.00 0.00 0.00 93 1013.8
20260508131108 56 294 1.0 1.0 0.00 0.00 0.00 93 1013.5
20260508130108 55 293 0.0 0.0 0.00 0.00 0.00 93 1014.0
20260508125108 55 328 0.0 0.0 0.00 0.00 0.00 93 1013.9
20260508124108 55 328 0.0 0.0 0.00 0.00 0.00 93 1013.6
20260508122108 55 328 0.0 0.0 0.00 0.00 0.00 93 1013.5
20260508121108 54 328 0.0 0.0 0.00 0.00 0.00 94 1013.6
20260508120108 53 328 0.0 0.0 0.00 0.00 0.00 93 1013.3
20260508115108 53 328 0.0 0.0 0.00 0.00 0.00 92 1013.4
20260508114108 52 328 0.0 0.0 0.00 0.00 0.00 92 1013.4
20260508113108 53 328 0.0 0.0 0.00 0.00 0.00 92 1013.3
20260508112108 53 328 0.0 0.0 0.00 0.00 0.00 92 1013.0
20260508111108 53 328 0.0 2.0 0.00 0.00 0.00 93 1012.6
20260508104108 53 327 1.0 2.0 0.00 0.00 0.00 92 1013.3
20260508103108 53 327 0.0 0.0 0.00 0.00 0.00 92 1013.3
20260508102108 53 327 0.0 1.0 0.00 0.00 0.00 92 1013.7
20260508100108 52 327 0.0 1.0 0.00 0.00 0.00 92 1013.0
20260508095108 52 327 0.0 1.0 0.00 0.00 0.00 92 1013.0
20260508094108 52 327 0.0 1.0 0.00 0.00 0.00 92 1013.0
20260508092108 52 327 0.0 0.0 0.00 0.00 0.00 92 1013.2
20260508090108 52 327 0.0 0.0 0.00 0.00 0.00 92 1013.2
20260508085108 52 327 0.0 1.0 0.00 0.00 0.00 92 1013.1
20260508084108 52 327 0.0 0.0 0.00 0.00 0.00 92 1013.1
20260508083108 52 327 0.0 0.0 0.00 0.00 0.00 92 1013.1
20260508082108 51 327 0.0 0.0 0.00 0.00 0.00 92 1013.3
20260508081108 51 327 0.0 0.0 0.00 0.00 0.00 91 1013.2
20260508075108 51 327 0.0 0.0 0.00 0.00 0.00 91 1013.4
20260508073108 51 327 0.0 0.0 0.00 0.00 0.00 91 1013.4
20260508072108 52 327 0.0 0.0 0.00 0.00 0.00 91 1013.5
20260508065108 52 327 0.0 0.0 0.00 0.00 0.00 91 1013.6
20260508064108 53 327 0.0 0.0 0.00 0.00 0.00 91 1013.8
20260508063109 53 327 0.0 0.0 0.00 0.00 0.00 91 1014.0
20260508062108 53 327 0.0 0.0 0.00 0.00 0.00 91 1014.0
20260508061108 53 327 0.0 0.0 0.00 0.00 0.00 91 1014.0
20260508060108 53 327 0.0 0.0 0.00 0.00 0.00 90 1013.8
20260508053109 54 327 0.0 0.0 0.00 0.00 0.00 90 1013.7
20260508052108 55 327 0.0 0.0 0.00 0.00 0.00 90 1013.8
20260508051109 55 327 0.0 0.0 0.00 0.00 0.00 90 1013.8
20260508050108 55 327 0.0 0.0 0.00 0.00 0.00 90 1013.8
20260508045109 55 327 0.0 0.0 0.00 0.00 0.00 90 1013.8
20260508044109 55 327 0.0 0.0 0.00 0.00 0.00 90 1013.8
20260508043108 56 327 0.0 0.0 0.00 0.00 0.00 90 1013.8
20260508042109 56 327 0.0 0.0 0.00 0.00 0.00 90 1014.0
20260508041109 56 327 0.0 0.0 0.00 0.00 0.00 90 1013.9
20260508035109 57 327 0.0 0.0 0.00 0.00 0.00 89 1014.0
20260508034109 57 327 0.0 0.0 0.00 0.00 0.00 89 1013.9
20260508033109 57 327 0.0 0.0 0.00 0.00 0.00 89 1013.8
20260508032109 58 327 0.0 0.0 0.00 0.00 0.00 89 1013.7
20260508031109 58 327 0.0 0.0 0.00 0.00 0.00 89 1013.6
20260508030109 58 327 0.0 0.0 0.00 0.00 0.00 89 1013.6
20260508024109 59 327 0.0 0.0 0.00 0.00 0.00 89 1013.6
20260508023109 59 327 0.0 0.0 0.00 0.00 0.00 88 1013.7
20260508022109 60 327 0.0 0.0 0.00 0.00 0.00 88 1013.4
20260508020109 60 327 0.0 0.0 0.00 0.00 0.00 87 1013.1
20260508015109 61 327 0.0 0.0 0.00 0.00 0.00 87 1013.2
20260508014109 62 327 0.0 1.0 0.00 0.00 0.00 86 1013.3
20260508013109 62 327 0.0 0.0 0.00 0.00 0.00 85 1013.1
20260508012109 63 327 0.0 2.0 0.00 0.00 0.00 85 1013.0
20260508011109 64 340 0.0 0.0 0.00 0.00 0.00 86 1013.0
20260508010109 64 340 0.0 0.0 0.00 0.00 0.00 85 1013.0
20260508005109 65 340 0.0 0.0 0.00 0.00 0.00 84 1012.9
20260508004109 66 340 0.0 0.0 0.00 0.00 0.00 83 1012.8
20260508003109 66 340 0.0 0.0 0.00 0.00 0.00 81 1012.8
20260508002109 67 340 0.0 0.0 0.00 0.00 0.00 81 1012.7
20260508001109 68 340 0.0 0.0 0.00 0.00 0.00 80 1012.9